View from above orbital plane
|
View from above satellite
|
Ground track
|
The orbit data is extracted from the following two-line orbital elements,
1 40376U 15003A 21057.95102520 .00000061 00000-0 20865-4 0 9990
2 40376 98.1255 66.7307 0000819 74.9954 285.1339 14.63394692324442
Epoch (UTC): | 26 February 2021 22:49:28 |
Eccentricity: | 0.0000819 |
inclination: | 98.1255° |
perigee height: | 681 km |
apogee height: | 683 km |
right ascension of ascending node: | 66.7307° |
argument of perigee: | 74.9954° |
revolutions per day: | 14.63394692 |
mean anomaly at epoch: | 285.1339° |
orbit number at epoch: | 32444 |
The dashed part of the orbit path shows where the satellite is in the earth's shadow,
|
|